• In United Kingdom
  • List of Countries
  • For 7 days
  • Water Temperature
  • Satellite Maps
  • Weather Map
  • Weather Widgets
  • user-avatar
    Login

    Hourly Weather Chimoio

    Today, 21 September, Thursday

    Time Temperature Precipitation Wind Pressure Humidity
    00:00 +21°C° 0 mm 1 mps 708 mmHg 82%
    01:00 +21°C° 0 mm 1 mps 708 mmHg 82%
    02:00 +21°C° 0 mm 1 mps 708 mmHg 83%
    03:00 +21°C° 0.1 mm 1 mps 707 mmHg 82%
    04:00 +21°C° 0.1 mm 1 mps 707 mmHg 82%
    05:00 +21°C° 0.1 mm 1 mps 707 mmHg 81%
    06:00 +21°C° 0.1 mm 1 mps 708 mmHg 77%
    07:00 +22°C° 0.1 mm 1 mps 708 mmHg 73%
    08:00 +23°C° 0.1 mm 1 mps 709 mmHg 69%
    09:00 +24°C° 0 mm 2 mps 709 mmHg 62%
    10:00 +26°C° 0 mm 2 mps 709 mmHg 55%
    11:00 +27°C° 0 mm 2 mps 709 mmHg 48%
    12:00 +28°C° 0 mm 2 mps 708 mmHg 46%
    13:00 +28°C° 0 mm 3 mps 707 mmHg 44%
    14:00 +29°C° 0 mm 3 mps 707 mmHg 42%
    15:00 +28°C° 0 mm 3 mps 706 mmHg 44%
    16:00 +27°C° 0 mm 3 mps 706 mmHg 47%
    17:00 +27°C° 0 mm 3 mps 706 mmHg 50%
    18:00 +25°C° 0 mm 3 mps 706 mmHg 56%
    19:00 +24°C° 0 mm 3 mps 707 mmHg 62%
    20:00 +23°C° 0 mm 2 mps 707 mmHg 68%
    21:00 +21°C° 0 mm 2 mps 707 mmHg 73%
    22:00 +21°C° 0 mm 1 mps 707 mmHg 77%
    23:00 +20°C° 0 mm 1 mps 707 mmHg 82%

    Tomorrow, 22 September, Friday

    Time Temperature Precipitation Wind Pressure Humidity
    00:00 +20°C° 0 mm 1 mps 707 mmHg 84%
    01:00 +18°C° 0 mm 0 mps 706 mmHg 86%
    02:00 +17°C° 0 mm 0 mps 706 mmHg 89%
    03:00 +17°C° 0 mm 0 mps 706 mmHg 91%
    04:00 +16°C° 0 mm 0 mps 705 mmHg 92%
    05:00 +16°C° 0 mm 0 mps 705 mmHg 94%
    06:00 +18°C° 0 mm 0 mps 706 mmHg 82%
    07:00 +20°C° 0 mm 0 mps 707 mmHg 70%
    08:00 +23°C° 0 mm 0 mps 707 mmHg 58%
    09:00 +27°C° 0 mm 1 mps 707 mmHg 49%
    10:00 +29°C° 0 mm 1 mps 707 mmHg 39%
    11:00 +31°C° 0 mm 2 mps 707 mmHg 29%
    12:00 +32°C° 0 mm 2 mps 706 mmHg 27%
    13:00 +32°C° 0 mm 2 mps 705 mmHg 25%
    14:00 +34°C° 0 mm 3 mps 704 mmHg 23%
    15:00 +33°C° 0 mm 3 mps 704 mmHg 24%
    16:00 +31°C° 0 mm 3 mps 704 mmHg 25%
    17:00 +30°C° 0 mm 3 mps 704 mmHg 27%
    18:00 +28°C° 0 mm 3 mps 704 mmHg 34%
    19:00 +26°C° 0 mm 2 mps 705 mmHg 41%
    20:00 +24°C° 0 mm 2 mps 705 mmHg 48%
    21:00 +23°C° 0 mm 1 mps 705 mmHg 53%
    22:00 +22°C° 0 mm 1 mps 705 mmHg 59%
    23:00 +19°C° 0 mm 0 mps 705 mmHg 64%

    Day after tomorrow, 23 September, Saturday

    Time Temperature Precipitation Wind Pressure Humidity
    00:00 +18°C° 0 mm 0 mps 705 mmHg 66%
    01:00 +18°C° 0 mm 0 mps 704 mmHg 68%
    02:00 +17°C° 0 mm 0 mps 704 mmHg 70%
    03:00 +17°C° 0 mm 0 mps 703 mmHg 70%
    04:00 +17°C° 0 mm 0 mps 703 mmHg 70%
    05:00 +16°C° 0 mm 0 mps 703 mmHg 70%
    06:00 +19°C° 0 mm 0 mps 704 mmHg 60%
    07:00 +22°C° 0 mm 0 mps 705 mmHg 49%
    08:00 +25°C° 0 mm 0 mps 706 mmHg 38%
    09:00 +29°C° 0 mm 1 mps 706 mmHg 31%
    10:00 +31°C° 0 mm 1 mps 706 mmHg 24%
    11:00 +35°C° 0 mm 2 mps 706 mmHg 17%
    12:00 +35°C° 0 mm 2 mps 706 mmHg 16%
    13:00 +35°C° 0 mm 3 mps 705 mmHg 15%
    14:00 +35°C° 0 mm 4 mps 704 mmHg 15%
    15:00 +34°C° 0 mm 4 mps 704 mmHg 17%
    16:00 +33°C° 0 mm 4 mps 704 mmHg 20%
    17:00 +32°C° 0 mm 4 mps 704 mmHg 22%
    18:00 +29°C° 0 mm 4 mps 705 mmHg 27%
    19:00 +27°C° 0 mm 3 mps 706 mmHg 32%
    20:00 +25°C° 0 mm 2 mps 707 mmHg 38%
    21:00 +24°C° 0 mm 2 mps 707 mmHg 44%
    22:00 +23°C° 0 mm 2 mps 707 mmHg 51%
    23:00 +21°C° 0 mm 2 mps 707 mmHg 58%

    24 September, Sunday

    Time Temperature Precipitation Wind Pressure Humidity
    00:00 +21°C° 0 mm 2 mps 707 mmHg 64%
    01:00 +20°C° 0 mm 2 mps 707 mmHg 69%
    02:00 +20°C° 0 mm 2 mps 707 mmHg 75%
    03:00 +21°C° 0.1 mm 1 mps 707 mmHg 77%
    04:00 +21°C° 0.1 mm 1 mps 707 mmHg 79%
    05:00 +20°C° 0.1 mm 1 mps 707 mmHg 82%
    06:00 +20°C° 0.2 mm 2 mps 708 mmHg 78%
    07:00 +21°C° 0.2 mm 2 mps 708 mmHg 74%
    08:00 +22°C° 0.2 mm 3 mps 709 mmHg 70%
    09:00 +24°C° 0.1 mm 3 mps 709 mmHg 63%
    10:00 +25°C° 0.1 mm 3 mps 709 mmHg 56%
    11:00 +26°C° 0.1 mm 3 mps 709 mmHg 49%
    12:00 +27°C° 0 mm 4 mps 708 mmHg 48%
    13:00 +27°C° 0 mm 4 mps 707 mmHg 47%
    14:00 +27°C° 0 mm 4 mps 706 mmHg 46%
    15:00 +27°C° 0 mm 3 mps 706 mmHg 49%
    16:00 +26°C° 0 mm 3 mps 706 mmHg 51%
    17:00 +26°C° 0 mm 3 mps 706 mmHg 53%
    18:00 +24°C° 0 mm 3 mps 706 mmHg 60%
    19:00 +23°C° 0 mm 2 mps 707 mmHg 66%
    20:00 +21°C° 0 mm 2 mps 707 mmHg 72%
    21:00 +21°C° 0 mm 1 mps 707 mmHg 75%
    22:00 +21°C° 0 mm 1 mps 707 mmHg 79%
    23:00 +20°C° 0 mm 1 mps 707 mmHg 82%

    25 September, Monday

    Time Temperature Precipitation Wind Pressure Humidity
    00:00 +20°C° 0 mm 1 mps 706 mmHg 84%
    01:00 +18°C° 0 mm 0 mps 706 mmHg 85%
    02:00 +18°C° 0 mm 0 mps 705 mmHg 87%
    03:00 +17°C° 0 mm 0 mps 705 mmHg 88%
    04:00 +17°C° 0 mm 0 mps 705 mmHg 89%
    05:00 +17°C° 0 mm 0 mps 706 mmHg 90%
    06:00 +19°C° 0 mm 0 mps 706 mmHg 82%
    07:00 +20°C° 0 mm 0 mps 706 mmHg 73%
    08:00 +22°C° 0 mm 0 mps 707 mmHg 64%
    09:00 +26°C° 0 mm 1 mps 706 mmHg 58%
    10:00 +27°C° 0 mm 1 mps 706 mmHg 51%
    11:00 +28°C° 0 mm 1 mps 705 mmHg 45%
    12:00 +30°C° 0 mm 2 mps 704 mmHg 40%
    13:00 +31°C° 0 mm 2 mps 704 mmHg 35%
    14:00 +34°C° 0 mm 2 mps 703 mmHg 30%
    15:00 +32°C° 0 mm 2 mps 702 mmHg 31%
    16:00 +31°C° 0 mm 2 mps 702 mmHg 32%
    17:00 +30°C° 0 mm 2 mps 702 mmHg 33%
    18:00 +29°C° 0 mm 2 mps 702 mmHg 38%
    19:00 +27°C° 0 mm 1 mps 702 mmHg 42%
    20:00 +25°C° 0 mm 1 mps 702 mmHg 47%
    21:00 +24°C° 0 mm 1 mps 702 mmHg 51%
    22:00 +23°C° 0 mm 1 mps 702 mmHg 55%
    23:00 +23°C° 0 mm 1 mps 702 mmHg 59%

    26 September, Tuesday

    Time Temperature Precipitation Wind Pressure Humidity
    00:00 +22°C° 0 mm 1 mps 702 mmHg 63%
    01:00 +19°C° 0 mm 0 mps 701 mmHg 67%
    02:00 +19°C° 0 mm 0 mps 701 mmHg 70%
    03:00 +18°C° 0 mm 0 mps 701 mmHg 73%
    04:00 +18°C° 0 mm 0 mps 701 mmHg 75%
    05:00 +17°C° 0 mm 0 mps 701 mmHg 77%
    06:00 +21°C° 0 mm 1 mps 702 mmHg 68%
    07:00 +24°C° 0 mm 1 mps 702 mmHg 59%
    08:00 +26°C° 0 mm 2 mps 703 mmHg 49%
    09:00 +29°C° 0 mm 2 mps 703 mmHg 41%
    10:00 +31°C° 0 mm 2 mps 702 mmHg 33%
    11:00 +35°C° 0 mm 3 mps 702 mmHg 25%
    12:00 +36°C° 0 mm 3 mps 701 mmHg 22%
    13:00 +37°C° 0 mm 3 mps 701 mmHg 18%
    14:00 +38°C° 0 mm 3 mps 700 mmHg 15%
    15:00 +37°C° 0 mm 3 mps 700 mmHg 16%
    16:00 +37°C° 0 mm 3 mps 700 mmHg 17%
    17:00 +36°C° 0 mm 3 mps 700 mmHg 18%
    18:00 +34°C° 0 mm 2 mps 700 mmHg 22%
    19:00 +31°C° 0 mm 2 mps 700 mmHg 26%
    20:00 +29°C° 0 mm 1 mps 700 mmHg 30%
    21:00 +28°C° 0 mm 1 mps 701 mmHg 34%
    22:00 +27°C° 0 mm 1 mps 701 mmHg 37%
    23:00 +24°C° 0 mm 0 mps 701 mmHg 41%
    Show more